STARLINK-1719, 46331

Orbit data source: Space-Track

STARLINK-1719, 46331 is a payload satellite owned by SpaceX/Seattle (US) in LEO that was launched on Thu, 03 Sep 2020 UTC via an FALCON 9 launch vehicle from the Air Force Eastern Test Range (AFETR). Payload-class satellites include a variety of spacecraft equipped with specific instruments for various scientific and technological missions. These include communications satellites like Starlink; space stations such as the ISS; scientific satellites like the Hubble; Earth observation satellites from companies like Planet Labs, Umbra, and HawkEye 360; GPS; miniature CubeSats for education and research; and military/defense satellites.

Loading next visibility...
Identifier
46331, 2020-062G
Orbit
LEO
Country
Flag of USUS
Related business
Manufacturer
SpaceX/Seattle
Mission
Operational Commercial Communications
Bus & Motor
STARLINK, Unknown motor
Mass
260 kg wet, ~248 kg dry
Launch date (UTC)
2020-09-03 (5 years ago)
Launch vehicle
FALCON 9
Launch site
Air Force Eastern Test Range (AFETR)
Object type
Payload
Rocket body
Debris
Shape & HBR
Box + 1 Pan, 10.1 m
Radar Cross Section
13.562 m², Large (>1 m²)

Expand to show TLE details & history
Last TLE update: 12 hours ago

TLE from 12 hours ago
0 STARLINK-1719
1 46331U 20062G   25288.00002315  .02044972  00000-0  72848-1 0  9991
2 46331  53.0555 309.9785 0001136  74.5945 205.4852 15.24966834  5850
Epoch: 2025-10-15T00:00Z
TLE epoch observation values (Epoch: 2025-10-15T00:00:02.000Z)
Latitude
-52.0551°
Longitude
-147.37994°
Altitude
509.64 km
Speed
7.609 km/s
True Right ascension
15h 45m 38s
True Declination
-51° 52' 56"
Sunlit
Object was in daylight at epoch
Visualization orbit readout
Latitude
Unknown
Longitude
Unknown
Altitude
Unknown
Speed
Unknown
Apparent Right ascension
Unknown
Apparent Declination
Unknown
Sunlit
N/A
Visualization observer readout
Local Sidereal Time
06:16:29
Azimuth
Unknown
Elevation
Unknown
Doppler factor
Unknown
Orbital elements
Apogee altitude
491.938 km
Perigee altitude
490.377 km
Semi-major axis
6,869.295 km
Eccentricity
0.00011
Inclination
53.0555°
RAAN
309.9785°
Arg. of periapsis
74.5945°
True anomaly
205.4796°
Mean anomaly
205.4852°
Eccentric anomaly
205.4824°
Mean motion
3.81219 °/min
Orbital period
94.43 mins
BSTAR
0.072848
Loading maneuver chart data...
Computing Atmospheric mass density...
Loading historical data...
Loading historical data...
Loading historical data...
Loading historical data...
Loading historical data...
Loading historical data...
Loading historical data...

Documentation

Showing up to 5 results
|